Regional Weather Roundup
Issued by NWS

Home | Current Version | Previous Version | Text Only | Print | Product List | Glossary On
Versions: 1 2 3 4 5 6 7 8 9 10 11 12 13 14 15 16 17 18 19 20 21 22 23 24 25 26 27 28 29 30 31 32 33 34 35 36 37 38 39 40 41 42 43 44 45 46 47 48 49 50
000
ASUS43 KLSX 271759
RWRMO

WEATHER SUMMARY FOR MISSOURI
NATIONAL WEATHER SERVICE SPRINGFIELD MO
100 PM CDT THU APR 27 2017

NOTE: "FAIR" INDICATES FEW OR NO CLOUDS BELOW 12,000 FEET WITH NO
       SIGNIFICANT WEATHER AND/OR OBSTRUCTIONS TO VISIBILITY.
       CURRENT SKY AND/OR WEATHER CONDITIONS ARE NOT AVAILABLE FOR
       CHILLICOTHE AND FARMINGTON.

MOZ001>031-035>038-043-044-053-054-271900-
...NORTHERN AND WESTERN MISSOURI...

CITY           SKY/WX    TMP DP  RH WIND       PRES   REMARKS
KANSAS CTY INT MOSUNNY   58  37  45 VRB7G17   29.75F
6HR MIN TEMP:  42; 6HR MAX TEMP:  58;

KANSAS C DTWN  SUNNY     58  39  49 S10       29.75F
6HR MIN TEMP:  43; 6HR MAX TEMP:  59;

LEE`S SUMMIT   SUNNY     57  38  48 VRB6      29.76F
6HR MIN TEMP:  41; 6HR MAX TEMP:  57;

ST JOSEPH      SUNNY     56  37  49 CALM      29.74F
6HR MIN TEMP:  42; 6HR MAX TEMP:  57;

CHILLICOTHE      N/A     55  39  54 SW7       29.76R
6HR MIN TEMP:  43; 6HR MAX TEMP:  56;

KIRKSVILLE     CLOUDY    52  39  61 W13       29.74R
6HR MIN TEMP:  40; 6HR MAX TEMP:  52;


$$
MOZ066>068-077>081-088>096-101>105-271900-
...SOUTHWEST MISSOURI...

CITY           SKY/WX    TMP DP  RH WIND       PRES   REMARKS
SPRINGFIELD    SUNNY     57  41  55 VRB5      29.80F
6HR MIN TEMP:  41; 6HR MAX TEMP:  57;

JOPLIN         SUNNY     61  44  53 VRB3      29.78F
6HR MIN TEMP:  38; 6HR MAX TEMP:  61;

BRANSON        MOSUNNY   57  39  51 NW5       29.82F

$$
MOZ032>034-039>042-045>050-055>058-069>072-271900-
...CENTRAL MISSOURI...

CITY           SKY/WX    TMP DP  RH WIND       PRES   REMARKS
COLUMBIA       CLOUDY    53  40  61 W14       29.78F
6HR MIN TEMP:  43; 6HR MAX TEMP:  54;

JEFFERSON CITY MOSUNNY   55  39  54 W9        29.79F
6HR MIN TEMP:  47; 6HR MAX TEMP:  55;

ROLLA          PTSUNNY   52  42  69 W9        29.78S
6HR MIN TEMP:  42; 6HR MAX TEMP:  52;

SEDALIA        PTSUNNY   55  44  66 W10G20    29.79F
6HR MIN TEMP:  43; 6HR MAX TEMP:  55;

OSAGE BEACH    MOSUNNY   55  40  56 W8G17     29.81S

$$
MOZ051-052-059>065-271900-
...EAST CENTRAL MISSOURI...

CITY           SKY/WX    TMP DP  RH WIND       PRES   REMARKS
ST LOUIS INTL  CLOUDY    53  39  59 W12       29.79R
6HR MIN TEMP:  47; 6HR MAX TEMP:  53; 6HR PCP: TRACE;

SPIRIT OF STL  CLOUDY    52  42  69 W15       29.78R
6HR MIN TEMP:  46; 6HR MAX TEMP:  52;

ST CHARLES     CLOUDY    51  40  65 W16       29.78R
6HR MIN TEMP:  46; 6HR MAX TEMP:  51;


$$
MOZ072>076-082>087-097>100-106>115-271900-
...SOUTH CENTRAL AND SOUTHEAST MISSOURI...

CITY           SKY/WX    TMP DP  RH WIND       PRES   REMARKS
CAPE GIRARDEAU CLOUDY    54  45  71 W7        29.82R
6HR MIN TEMP:  49; 6HR MAX TEMP:  54;

FARMINGTON     MOSUNNY   54  43  66 VRB6      29.79F
6HR MIN TEMP:  45; 6HR MAX TEMP:  54;

POPLAR BLUFF   MOSUNNY   58  47  66 SW7       29.82S
6HR MIN TEMP:  49; 6HR MAX TEMP:  58;

WEST PLAINS    SUNNY     59  43  55 SW3G16    29.82S
6HR MIN TEMP:  45; 6HR MAX TEMP:  59;


$$



USA.gov is the U.S. government's official web portal to all federal, state and local government web resources and services.